This is the latest recevied weather packets stored in our database for station/object 9A3SWO. If no packets are shown the sender has not sent any weather packets the latest 10 day(s).
| Time | Temp. | Humidity | Pressure | Rain* | Wind** | Luminosity | Snow |
|---|---|---|---|---|---|---|---|
| 1787860699 | 29.44° C | 43% | 1016.8 hPa | - | - | - | - |
| 1787860099 | 28.89° C | 44% | 1016.7 hPa | - | - | - | - |
| 1787859499 | 29.44° C | 42% | 1016.7 hPa | - | - | - | - |
| 1787858899 | 29.44° C | 43% | 1016.6 hPa | - | - | - | - |
| 1787858299 | 29.44° C | 42% | 1016.5 hPa | - | - | - | - |
| 1787857699 | 30° C | 42% | 1016.5 hPa | - | - | - | - |
| 1787857099 | 30° C | 42% | 1016.4 hPa | - | - | - | - |
| 1787856499 | 29.44° C | 41% | 1016.3 hPa | - | - | - | - |
| 1787855900 | 29.44° C | 41% | 1016.2 hPa | - | - | - | - |
| 1787855299 | 30° C | 40% | 1016.1 hPa | - | - | - | - |
| 1787854700 | 30.56° C | 40% | 1016 hPa | - | - | - | - |
| 1787854100 | 31.11° C | 39% | 1016 hPa | - | - | - | - |
| 1787853499 | 31.67° C | 44% | 1015.8 hPa | - | - | - | - |
| 1787852899 | 31.67° C | 44% | 1015.7 hPa | - | - | - | - |
| 1787852299 | 31.67° C | 46% | 1015.7 hPa | - | - | - | - |
| 1787851699 | 32.22° C | 45% | 1015.5 hPa | - | - | - | - |
| 1787851099 | 32.22° C | 44% | 1015.5 hPa | - | - | - | - |
| 1787850499 | 32.22° C | 45% | 1015.3 hPa | - | - | - | - |
| 1787849898 | 32.22° C | 45% | 1015.4 hPa | - | - | - | - |
| 1787849299 | 32.22° C | 45% | 1015.3 hPa | - | - | - | - |
| 1787848699 | 32.22° C | 45% | 1015.1 hPa | - | - | - | - |
| 1787848098 | 32.22° C | 45% | 1015.1 hPa | - | - | - | - |
| 1787847498 | 32.22° C | 45% | 1015.1 hPa | - | - | - | - |
| 1787846898 | 32.78° C | 46% | 1015.1 hPa | - | - | - | - |
| 1787846300 | 32.78° C | 46% | 1014.9 hPa | - | - | - | - |
* Rain since midnight (hover to see other rain measurements)
** Current wind speed in m/s (hover to see current wind gust speed)